Weather History for KSZL - May, 2013

Change the Weather History Date:

Friday, May 17, 2013

  Actual Average Record
Temperature  
Mean Temperature 68 °F -  
Max Temperature 80 °F 73 °F 87 °F (1997)
Min Temperature 55 °F 54 °F 34 °F (2014)
Cooling Degree Days 2    
Growing Degree Days 18 (Base 50)    
Moisture  
Dew Point 62 °F    
Average Humidity 84    
Maximum Humidity 100    
Minimum Humidity 58    
Precipitation  
Precipitation 0.00 in - - ()
Sea Level Pressure  
Sea Level Pressure 29.92 in    
Wind  
Wind Speed 3 mph (SE)    
Max Wind Speed 9 mph    
Max Gust Speed -    
Visibility 10 miles    
Events Rain    
Averages and records for this station are not official NWS values.
T = Trace of Precipitation, MM = Missing Value Source: NWS Daily Summary

Daily Weather History Graph

Daily Weather History Graph

Search for Another Location

Airport or City:

Trip Planner

Search our weather history database for the weather conditions in past years. The results will help you decide how hot, cold, wet, or windy it might be!

Date:

Astronomy

May. 17, 2013 Rise Set
Actual Time 6:00 AM CDT 8:21 PM CDT
Civil Twilight 5:30 AM CDT 8:51 PM CDT
Nautical Twilight 4:52 AM CDT 9:29 PM CDT
Astronomical Twilight 4:12 AM CDT 10:10 PM CDT
Moon 12:31 PM CDT (5/17) 1:16 AM CDT (5/17)
Length of Visible Light 15h 21m
Length of Day
14h 21m
Waxing Crescent, 45% of the Moon is Illuminated
May 17
Waxing Crescent
May 17
First Quarter
May 24
Full
May 31
Last Quarter
Jun 8
New

Hourly Weather History & Observations

Time (CDT) Temp. Heat Index Dew Point Humidity Pressure Visibility Wind Dir Wind Speed Gust Speed Precip Events Conditions
12:58 AM 60.4 °F - 60.4 °F 100% 29.89 in 10.0 mi SE 4.6 mph - N/A   Clear
1:58 AM 58.3 °F - 58.3 °F 100% 29.88 in 10.0 mi SSW 2.3 mph - N/A   Clear
2:58 AM 59.0 °F - 59.0 °F 100% 29.88 in 10.0 mi SSW 4.6 mph - N/A   Clear
3:58 AM 57.4 °F - 57.4 °F 100% 29.88 in 10.0 mi East 4.6 mph - N/A   Clear
4:58 AM 56.3 °F - 56.3 °F 100% 29.89 in 10.0 mi East 3.5 mph - N/A   Clear
5:18 AM 55.4 °F - 55.4 °F 100% 29.89 in 9.0 mi East 2.3 mph - N/A   Clear
5:43 AM 55.4 °F - 55.4 °F 100% 29.90 in 10.0 mi ESE 3.5 mph - N/A   Scattered Clouds
5:58 AM 55.9 °F - 55.9 °F 100% 29.90 in 7.0 mi East 3.5 mph - N/A   Scattered Clouds
6:08 AM 57.2 °F - 57.2 °F 100% 29.90 in 8.0 mi SE 2.3 mph - N/A   Mostly Cloudy
6:58 AM 58.6 °F - 58.6 °F 100% 29.91 in 10.0 mi ESE 4.6 mph - N/A   Mostly Cloudy
7:53 AM 60.8 °F - 60.8 °F 100% 29.95 in 10.0 mi SSE 2.3 mph - N/A   Overcast
7:58 AM 61.5 °F - 61.5 °F 100% 29.95 in 10.0 mi SE 2.3 mph - N/A   Overcast
8:23 AM 62.6 °F - 62.6 °F 100% 29.95 in 10.0 mi SE 2.3 mph - N/A   Overcast
8:58 AM 62.6 °F - 62.6 °F 100% 29.96 in 10.0 mi South 3.5 mph - N/A   Overcast
9:58 AM 64.4 °F - 64.4 °F 100% 29.95 in 10.0 mi WNW 2.3 mph - N/A   Overcast
10:43 AM 68.0 °F - 66.2 °F 94% 29.95 in 10.0 mi South 2.3 mph - N/A   Scattered Clouds
10:58 AM 68.7 °F - 64.9 °F 88% 29.95 in 10.0 mi ENE 3.5 mph - N/A   Scattered Clouds
11:13 AM 69.8 °F - 66.2 °F 88% 29.95 in 10.0 mi Variable 2.3 mph - N/A   Overcast
11:58 AM 70.9 °F - 63.3 °F 77% 29.95 in 10.0 mi WSW 4.6 mph - N/A   Overcast
12:38 PM 71.6 °F - 62.6 °F 73% 29.94 in 10.0 mi Variable 3.5 mph - N/A   Overcast
12:48 PM 71.6 °F - 62.6 °F 73% 29.94 in 10.0 mi Variable 2.3 mph - N/A   Overcast
12:58 PM 73.0 °F - 63.0 °F 71% 29.93 in 10.0 mi Variable 3.5 mph - N/A   Overcast
1:13 PM 73.4 °F - 62.6 °F 69% 29.93 in 10.0 mi Variable 3.5 mph - N/A   Mostly Cloudy
1:23 PM 73.4 °F - 62.6 °F 69% 29.93 in 10.0 mi Calm Calm - N/A   Scattered Clouds
1:58 PM 75.0 °F - 62.1 °F 64% 29.93 in 10.0 mi Variable 5.8 mph - N/A   Mostly Cloudy
2:58 PM 77.2 °F - 63.5 °F 63% 29.92 in 10.0 mi WSW 9.2 mph - N/A   Scattered Clouds
3:55 PM 79.0 °F - 63.1 °F 58% 29.90 in 10.0 mi Variable 3.5 mph - N/A   Mostly Cloudy
3:58 PM 79.0 °F - 63.1 °F 58% 29.91 in 10.0 mi WSW 5.8 mph - N/A   Mostly Cloudy
4:58 PM 80.2 °F 81.9 °F 64.4 °F 58% 29.88 in 10.0 mi WSW 3.5 mph - N/A   Mostly Cloudy
5:58 PM 79.9 °F - 63.7 °F 58% 29.89 in 10.0 mi Variable 2.3 mph - N/A   Mostly Cloudy
6:58 PM 78.4 °F - 63.9 °F 61% 29.88 in 10.0 mi East 2.3 mph - N/A   Scattered Clouds
7:47 PM 77.0 °F - 64.4 °F 65% 29.89 in 10.0 mi SE 2.3 mph - N/A   Light Drizzle
7:58 PM 75.9 °F - 64.6 °F 68% 29.89 in 10.0 mi SE 2.3 mph - N/A   Partly Cloudy
8:00 PM 75.2 °F - 64.4 °F 69% 29.89 in 10.0 mi SE 2.3 mph - N/A Rain Light Rain
8:30 PM 73.4 °F - 64.4 °F 73% 29.89 in 10.0 mi Calm Calm - N/A   Clear
8:58 PM 70.7 °F - 65.7 °F 84% 29.90 in 10.0 mi Calm Calm - N/A   Clear
9:58 PM 68.4 °F - 65.1 °F 89% 29.92 in 10.0 mi Calm Calm - N/A   Clear
10:58 PM 66.4 °F - 66.0 °F 99% 29.93 in 10.0 mi ESE 4.6 mph - N/A   Clear
11:58 PM 65.1 °F - 65.1 °F 100% 29.93 in 10.0 mi SE 3.5 mph - N/A   Clear